Вернуться в каталог

BSAT-4A

АктивенСвязьGEO
NORAD 42951·PAYLOAD·🇯🇵 Japan

Запущен Sep 29, 2017 с Guiana Space Centre

Loading…

TLE

СвежийSource: Space-Track

Эпоха: Sep 14, 2026, 21:10 UTC

1 42951U 17059B   26257.88196057  .00000000  00000-0  00000-0 0  9999
2 42951   0.0143  25.0389 0001796  77.9280 318.2231  1.00270064 32694

Отслеживайте BSAT-4A в реальном времени с AllMySat

Download on the App Store